Wind_Gust
12 11 10 10 11 12 13 13 12 13 11 10 10 11 10 8 9 11 13 12 11 12 12 11 11 10 10 9 10 9 9 9 8 8 8 8 8 8 8 8 9 9 8 8 8 8 9 10 10 8 7 10 11 11 12 11 11 11 11 12 12 11 11 12 16 16 12 9 9 11 11 9 14 13 14 13 13 13 10 14 15 15 15 14 15
12 11 10 11 11 11 12 12 14 13 12 11 9 9 9 8 9 11 11 11 11 12 13 11 10 10 10 10 10 10 10 10 9 7 7 7 8 7 6 7 7 8 8 9 8 7 8 10 10 9 7 9 8 12 12 12 13 13 12 11 13 11 8 11 13 13 14 10 10 10 11 10 13 13 12 12 12 12 15 14 15 15 16 14 13
10 10 10 11 11 12 12 12 13 13 12 11 11 10 9 9 10 12 12 12 11 10 12 12 11 10 10 10 11 11 11 11 10 9 8 7 7 7 6 7 8 9 10 10 10 10 10 10 10 10 9 9 8 8 7 10 11 14 12 11 12 11 11 11 12 14 13 11 7 10 9 11 12 13 12 11 11 12 12 14 15 15 15 15 15
10 10 11 11 11 11 12 11 12 13 13 11 11 10 11 12 12 11 12 11 14 12 13 13 12 10 9 9 10 10 11 11 11 10 9 8 7 8 9 9 10 11 11 11 11 11 10 10 10 11 11 11 10 9 8 8 10 12 12 11 11 11 9 8 8 11 12 13 8 9 9 8 10 11 9 9 11 12 12 10 11 14 14 14 14
9 10 10 11 11 11 10 11 11 12 12 12 13 12 12 12 13 13 13 12 12 12 11 11 11 11 10 10 10 10 10 11 10 9 9 10 9 7 9 11 13 13 14 13 7 12 12 12 12 12 12 12 11 11 11 10 11 11 12 12 12 11 9 9 10 9 11 12 11 9 7 9 10 10 12 11 10 10 10 10 11 13 13 12 12
8 8 8 8 10 10 10 10 11 11 11 12 14 14 13 13 15 14 15 14 12 11 13 10 10 11 10 11 10 10 9 9 8 8 8 8 9 9 9 10 13 15 14 15 17 14 13 12 12 13 13 13 13 11 11 11 10 10 11 12 13 12 11 11 10 10 11 11 9 10 8 9 9 11 12 12 12 13 14 11 8 11 14 15 13
7 8 8 9 9 10 11 11 11 11 12 14 13 14 15 14 16 16 12 10 12 12 11 11 12 13 13 11 11 10 9 8 9 9 9 10 11 11 13 13 12 12 14 16 18 16 13 13 11 11 13 13 13 13 12 10 9 10 11 12 12 11 12 12 12 11 10 11 10 8 8 10 9 10 12 11 9 12 16 16 13 13 13 15 16
7 8 8 9 10 10 9 8 9 9 10 11 12 13 14 14 13 12 12 12 12 12 14 13 12 11 11 11 9 7 8 10 11 11 11 13 14 14 14 14 14 12 13 17 19 19 16 13 12 14 13 9 9 11 12 13 11 10 9 9 11 11 12 12 11 11 9 8 8 8 7 7 8 7 8 10 11 11 16 16 19 19 18 15 12
8 8 8 9 9 8 7 7 6 7 8 10 12 12 12 11 12 12 12 12 13 14 13 12 11 10 9 12 12 10 9 10 10 10 10 10 11 12 13 13 14 16 15 16 17 17 14 13 14 15 14 11 11 11 10 8 13 12 10 10 10 11 11 10 9 8 8 7 8 7 7 7 9 10 10 12 13 14 13 13 15 15 18 17 13
9 8 9 9 8 8 8 7 8 8 9 10 11 11 11 11 12 12 13 11 9 10 11 10 10 10 12 12 12 12 11 10 7 5 4 9 9 11 11 13 15 15 15 15 14 14 14 13 12 10 12 12 13 14 14 14 10 12 16 13 10 10 10 9 8 6 6 6 8 8 9 9 9 9 10 9 8 9 11 13 16 17 17 17 11
8 8 8 8 8 7 7 8 9 9 9 10 11 12 12 11 12 12 12 13 11 11 10 10 11 11 12 12 12 11 11 10 5 6 8 8 9 10 12 13 13 13 13 13 14 13 12 12 10 9 11 10 15 11 11 13 11 10 11 9 6 11 12 10 8 6 5 7 6 7 8 9 7 8 7 9 7 10 11 12 14 16 18 20 23
8 8 8 7 7 8 8 7 8 9 9 10 11 11 12 13 13 13 13 13 13 12 12 13 12 10 9 11 11 10 8 3 4 5 6 7 7 12 12 12 11 12 12 13 12 11 10 9 8 9 12 15 15 15 10 7 9 11 10 9 8 7 5 7 7 6 6 7 7 7 8 8 9 7 9 9 11 11 11 12 12 14 16 17 18
8 9 9 8 7 7 7 8 8 8 8 8 8 9 11 12 12 12 13 11 11 14 13 11 10 10 11 11 10 10 9 4 3 3 5 7 9 10 12 11 11 11 10 10 10 10 9 8 8 9 9 8 12 14 14 13 8 12 12 11 8 9 9 10 8 6 5 6 7 7 8 8 9 8 8 9 9 12 13 14 13 13 14 16 17
10 10 9 9 8 8 8 8 8 7 7 8 8 8 8 10 10 10 11 11 11 12 11 11 11 11 11 10 9 8 8 6 4 4 3 4 4 7 10 8 8 8 8 9 9 10 10 10 9 8 8 11 11 14 15 15 15 14 13 11 10 10 9 8 8 7 6 5 6 9 6 7 10 9 8 7 10 13 15 15 14 15 15 17 17
12 11 11 10 8 8 8 9 9 7 7 8 9 10 10 10 12 10 10 11 12 12 13 12 11 10 10 9 8 7 7 4 3 4 4 4 6 3 7 7 7 7 8 8 9 9 10 9 9 9 8 10 10 13 17 16 14 13 12 10 10 9 9 9 8 7 6 6 6 7 7 7 7 7 8 8 9 10 11 14 15 16 18 18 19
13 12 12 10 11 10 8 7 6 6 8 9 10 10 10 11 10 10 10 10 9 10 9 10 10 10 9 9 9 9 8 3 3 4 6 7 7 9 9 8 7 7 8 9 9 8 8 8 8 8 8 9 8 8 9 16 15 14 12 11 10 10 11 7 9 10 11 10 9 9 8 10 7 9 10 11 10 10 11 13 14 15 17 19 20
12 11 11 10 10 8 8 6 6 6 8 8 8 8 11 10 9 8 10 10 10 9 9 9 9 9 10 10 9 10 10 5 3 6 8 12 9 10 11 10 9 9 10 9 10 10 10 8 7 8 9 10 10 10 10 9 14 14 14 12 11 11 10 9 9 8 8 8 8 8 6 3 2 3 3 4 9 10 13 15 15 15 18 22 20
13 12 12 11 10 7 7 7 10 9 9 9 9 9 8 8 8 8 10 12 10 11 11 11 9 8 8 8 7 9 10 7 4 5 10 12 8 12 11 11 10 10 10 10 10 12 15 13 6 10 11 12 9 11 10 10 13 14 14 13 11 9 8 7 6 7 5 6 4 3 1 1 2 4 6 6 5 7 13 17 17 18 20 19 24
14 15 14 14 12 12 11 7 8 9 9 6 6 8 9 10 9 8 8 10 12 12 10 11 10 9 9 9 5 7 9 8 5 6 8 9 9 11 12 12 12 11 11 12 11 12 14 14 14 12 13 13 10 8 6 7 11 11 12 12 11 10 9 9 9 9 9 10 11 11 13 11 12 10 9 9 8 10 14 16 17 18 21 20 21
15 13 14 14 12 12 10 11 9 8 9 10 9 9 9 10 11 11 10 11 13 11 10 10 10 9 7 6 6 6 7 8 9 7 8 6 4 10 11 12 13 13 11 13 14 14 15 16 15 12 14 14 14 13 12 9 11 10 9 9 9 9 9 8 8 6 7 8 7 8 9 9 9 10 11 11 12 12 13 15 15 17 19 20 22
14 14 13 13 14 13 11 10 12 11 11 11 9 8 11 11 10 10 11 10 10 11 10 10 10 9 8 7 7 8 8 8 9 5 8 7 6 5 10 10 13 14 14 13 14 15 15 16 16 11 14 15 15 15 14 12 8 11 9 10 10 11 6 8 9 4 8 7 9 10 11 11 12 12 12 13 13 13 13 13 15 16 17 21 24
13 13 14 15 15 14 12 11 12 12 10 10 11 11 10 10 11 10 10 12 13 12 11 10 10 9 7 7 8 8 8 7 8 7 6 7 7 3 7 10 12 16 14 14 15 15 15 15 15 11 14 15 15 14 13 12 10 14 15 9 8 4 8 8 7 7 8 9 11 12 12 13 13 13 13 13 13 13 14 16 15 16 18 20 24
15 14 14 15 14 14 14 12 11 10 11 11 12 14 13 14 13 13 13 12 13 14 14 13 11 10 8 8 8 8 8 8 5 9 7 8 7 5 6 10 5 11 15 16 15 16 15 16 15 10 13 14 14 13 13 12 10 13 9 8 7 4 4 8 8 8 10 11 12 14 14 14 14 15 15 15 14 14 16 17 17 18 19 20 20
16 16 15 14 14 14 15 14 12 11 12 12 13 15 12 12 13 15 16 16 14 13 10 9 10 10 10 8 7 7 7 7 5 6 12 10 10 10 10 8 5 8 11 15 15 17 17 16 15 11 13 14 14 14 13 11 16 11 10 8 5 3 9 8 9 10 11 12 13 14 15 16 16 17 17 17 18 18 20 19 21 21 22 22 22
17 17 17 17 15 14 13 14 14 13 12 11 13 13 12 11 14 13 12 11 13 15 12 12 12 10 8 7 8 8 8 8 9 7 9 12 13 13 12 12 12 12 17 15 15 16 13 13 13 13 15 17 17 16 13 12 12 10 8 5 3 9 10 10 11 12 13 12 14 15 17 16 16 18 19 21 22 22 22 21 20 21 21 22 21
18 19 19 18 18 17 16 15 13 14 13 12 14 14 14 14 15 13 13 13 12 11 11 10 10 10 10 9 10 10 10 10 10 11 7 10 10 12 13 13 12 12 15 17 15 16 15 16 17 15 13 12 16 15 15 15 9 9 7 4 10 10 11 12 12 12 13 14 14 16 18 19 20 21 20 19 19 20 20 20 19 19 19 20 21
18 18 19 19 19 18 16 17 15 13 11 11 12 13 14 15 16 15 17 17 16 15 16 16 13 13 14 13 12 12 12 12 12 13 13 14 16 17 19 19 15 16 20 20 15 18 18 14 14 12 12 13 13 9 10 9 11 9 10 10 10 11 10 11 13 13 14 14 16 19 20 19 18 18 18 18 19 19 17 18 19 19 19 20 21
19 20 19 19 19 19 20 9 13 16 12 9 11 12 13 13 15 17 19 19 16 14 14 14 15 16 16 14 14 13 13 13 14 16 16 16 17 17 18 19 18 17 19 18 17 18 20 13 15 17 16 14 13 11 11 10 9 6 10 10 10 10 6 3 6 10 11 13 17 17 16 16 17 17 18 18 18 18 17 18 18 20 19 20 21
21 21 20 19 20 18 18 18 17 16 14 11 8 8 10 11 15 14 12 10 17 21 18 14 14 13 15 16 17 15 13 16 17 7 15 10 16 19 18 17 17 15 13 15 20 18 16 15 12 13 11 8 7 7 9 8 6 8 9 10 10 10 11 12 13 13 12 13 16 17 16 17 18 17 18 19 19 19 18 18 18 20 20 19 21
22 23 22 21 21 19 18 19 18 17 16 14 10 7 2 3 7 10 13 5 9 15 11 18 18 17 15 15 17 19 20 17 14 14 11 11 11 13 12 12 11 17 16 15 15 17 13 12 11 10 9 7 6 6 6 5 6 7 6 4 9 11 12 12 12 13 13 13 13 15 16 16 17 19 19 20 20 20 19 15 20 19 20 19 21
25 24 21 21 21 19 18 18 18 16 16 14 12 11 10 8 4 3 3 5 6 6 7 10 10 13 17 18 10 10 10 18 22 16 14 13 12 14 15 15 18 19 18 18 15 14 13 12 10 9 8 6 6 7 5 5 6 6 7 8 7 8 8 12 12 11 11 12 12 14 15 16 17 18 19 19 20 21 20 18 19 19 20 21 22
26 25 25 22 20 19 21 19 17 16 15 12 13 13 12 12 11 6 7 6 9 9 6 5 8 10 9 11 13 12 13 18 21 19 16 16 15 16 17 18 18 17 11 12 17 14 12 12 10 9 7 6 7 5 5 5 5 7 8 9 10 10 11 11 12 15 12 12 12 14 16 16 17 17 18 19 18 20 20 19 19 19 20 21 22
25 25 25 26 25 20 21 20 18 17 17 14 12 12 13 13 15 13 10 9 7 7 6 4 9 10 9 12 15 14 14 17 21 20 19 18 18 17 18 17 16 13 11 12 14 13 11 10 10 8 7 6 6 5 5 7 6 7 8 10 12 13 12 12 9 12 10 11 13 16 16 16 17 17 17 18 19 20 20 20 19 18 19 21 21
25 24 23 24 25 25 22 20 20 19 18 18 16 14 14 14 13 12 12 11 10 9 9 10 6 9 7 12 12 13 18 21 21 21 20 20 20 21 18 17 10 4 4 12 13 13 11 10 9 11 10 6 6 5 4 5 5 8 9 10 12 14 15 15 14 10 11 10 14 16 15 16 17 19 19 18 18 19 20 19 19 19 19 20 21
26 22 20 19 25 25 25 24 22 19 18 18 17 15 13 12 11 14 15 14 11 12 9 11 8 4 11 10 12 18 20 20 18 19 21 21 22 21 18 21 17 12 12 13 13 14 12 11 10 9 10 7 6 5 4 6 7 8 10 11 14 14 13 12 12 10 11 12 15 15 16 17 18 18 18 19 19 20 20 19 19 20 21 21 22
24 24 23 22 23 25 25 25 23 22 19 19 18 14 11 12 14 13 12 15 16 13 12 10 11 6 6 6 12 17 20 22 24 24 23 23 23 21 22 18 17 15 13 15 14 13 12 12 11 11 10 9 8 4 3 6 7 8 12 13 12 13 13 13 11 12 11 13 15 16 16 18 18 19 19 19 18 19 19 19 19 20 20 21 20
21 20 20 21 21 21 22 23 22 23 14 14 16 14 11 11 11 12 13 13 11 11 13 14 14 14 10 11 13 14 17 19 19 19 19 20 20 15 12 15 14 14 14 12 14 14 12 9 10 11 10 8 7 6 5 6 9 10 6 10 10 11 11 12 13 11 13 14 17 16 16 18 19 18 19 19 19 19 19 19 19 20 20 21 18
19 19 19 20 17 17 20 22 21 12 20 17 16 14 12 12 12 9 10 8 9 10 10 14 8 13 13 16 13 17 24 19 22 17 14 11 12 12 10 9 12 12 13 12 13 13 10 10 10 10 11 9 7 7 6 6 7 8 10 9 10 10 9 14 8 10 10 13 17 17 17 18 19 19 18 18 18 18 19 19 20 21 21 20 18
16 14 16 15 13 16 17 15 17 18 19 19 18 14 11 11 9 9 10 9 10 10 9 13 15 15 16 18 20 21 26 23 21 21 19 17 11 9 9 9 10 11 12 12 14 12 10 10 10 8 7 5 3 4 5 7 7 8 9 10 10 11 11 11 12 11 11 14 18 18 18 19 19 19 19 19 18 17 18 19 19 20 20 20 20
17 16 10 11 11 13 12 12 13 16 17 19 20 15 13 11 10 10 10 10 11 11 11 12 11 13 17 22 20 24 23 21 21 21 18 14 11 8 9 11 11 12 12 12 11 11 10 10 9 8 7 4 3 4 4 6 8 8 8 9 11 11 11 11 12 12 12 15 18 18 19 19 20 20 19 18 18 18 18 19 19 19 19 19 19
16 13 6 7 6 9 8 8 11 14 14 17 14 14 12 11 11 9 10 11 10 10 10 11 13 12 12 11 6 15 19 22 20 15 12 11 10 10 10 11 12 13 12 11 11 10 9 10 9 8 6 3 2 3 4 6 7 8 9 9 10 10 11 10 10 11 14 16 16 18 19 20 20 20 20 19 15 17 18 18 19 19 19 18 18
14 13 12 10 7 8 8 8 7 9 10 8 13 11 12 12 12 10 10 10 12 14 14 15 16 15 12 11 9 13 16 14 13 14 13 13 11 11 10 11 12 12 11 12 11 11 10 10 9 7 4 3 3 4 6 6 7 8 9 10 10 10 11 11 11 13 14 16 16 17 18 20 20 21 20 13 19 18 19 18 19 19 19 19 18
14 13 13 13 12 10 8 8 10 11 11 10 9 7 10 12 12 14 14 15 15 15 15 16 16 15 14 9 14 10 11 15 12 14 11 11 12 12 12 12 11 11 10 10 10 10 10 9 7 6 4 5 4 5 7 7 7 8 8 7 8 10 12 13 14 14 15 16 17 17 18 19 20 20 20 18 19 18 18 18 18 18 17 18 17
16 15 14 14 13 14 11 11 13 13 13 11 12 13 13 13 15 15 15 15 15 15 16 16 16 15 13 13 13 13 8 9 9 10 11 11 13 13 13 12 11 11 11 10 10 9 9 8 6 7 5 4 3 3 6 6 6 6 7 8 9 11 13 14 15 15 16 17 18 19 19 19 19 20 19 18 18 19 19 17 17 17 17 17 17
18 17 16 18 17 17 18 15 13 15 16 15 15 16 14 15 15 15 15 17 17 17 17 17 16 14 14 11 10 11 8 9 8 11 11 12 12 12 13 13 12 11 11 10 9 7 7 7 6 6 3 3 3 4 6 7 6 7 7 8 10 12 14 15 16 17 17 17 19 19 20 20 20 20 20 19 18 17 19 18 18 14 16 16 16
20 19 16 16 16 17 18 18 17 18 18 18 17 17 16 17 17 17 17 18 19 19 17 16 14 12 12 11 9 10 9 10 10 10 13 12 13 13 12 12 11 10 10 10 8 6 7 6 6 6 3 5 7 7 7 7 8 8 8 8 10 11 14 16 17 18 18 17 18 19 19 19 19 19 17 21 19 18 18 18 17 17 17 16 15
19 18 19 19 19 19 18 18 19 19 20 19 19 20 20 21 19 18 17 19 19 19 16 14 13 12 11 9 9 9 10 11 11 11 10 11 11 13 13 12 12 10 10 9 8 9 8 8 7 7 7 7 8 9 9 9 8 9 9 9 10 12 13 17 19 18 18 18 18 18 18 18 19 19 19 19 19 19 18 19 19 18 18 17 16
19 19 19 18 18 19 19 19 21 17 20 18 17 18 18 20 21 20 18 15 15 15 16 14 14 13 12 11 11 10 11 11 12 13 13 13 12 12 11 9 10 10 10 10 8 9 9 8 8 8 8 9 10 10 9 9 9 10 10 11 11 15 19 18 19 18 17 19 18 18 17 18 18 19 19 19 19 20 20 20 19 19 17 17 15
18 18 19 19 19 18 16 17 17 18 18 16 16 18 16 16 16 15 15 15 14 14 14 15 15 13 13 12 12 12 12 13 13 13 13 13 12 12 10 9 8 9 9 10 9 9 9 9 9 9 10 10 10 10 9 10 11 11 12 12 14 18 19 19 18 18 20 21 18 17 16 16 17 17 18 17 19 19 19 18 17 18 18 16 16
17 18 18 18 18 16 16 17 17 16 16 15 17 18 16 14 14 14 13 14 15 15 14 14 14 13 14 14 14 13 13 14 14 14 13 13 12 11 11 9 9 9 10 9 8 8 9 9 9 9 10 9 9 10 10 11 12 13 13 16 18 19 20 21 16 16 20 18 18 16 16 16 16 16 17 17 17 18 18 18 18 17 17 17 16
15 16 16 17 16 15 16 18 18 18 17 15 15 15 15 17 17 15 14 15 16 15 15 15 15 14 14 13 13 14 15 15 15 15 14 12 11 10 10 11 11 10 9 9 8 9 9 8 9 9 9 8 9 9 11 12 12 15 15 16 17 20 22 21 23 20 22 17 17 15 14 14 13 16 16 18 17 17 18 17 18 17 17 17 16
Wind_Speed
6 4 4 4 5 6 7 6 7 6 6 5 5 5 5 4 3 4 6 5 5 5 5 5 4 4 4 3 3 3 3 3 2 2 2 2 2 2 2 2 3 3 2 3 2 2 3 4 3 2 1 4 4 4 4 4 4 4 4 4 4 4 4 5 6 7 4 3 3 3 3 2 5 5 5 5 4 4 5 6 6 6 5 4 6
5 5 4 4 6 6 6 6 7 6 6 5 4 3 4 3 3 5 6 5 4 5 6 5 4 4 4 4 4 4 4 4 3 2 1 2 2 2 1 1 1 2 2 3 3 1 2 3 4 3 1 3 2 4 4 4 4 5 4 4 5 4 2 4 5 5 5 3 3 2 3 2 4 4 4 4 4 4 6 5 5 6 6 5 4
4 4 4 5 6 6 6 6 6 7 6 5 5 4 4 4 3 5 6 5 5 4 5 5 5 4 4 4 4 4 4 5 3 3 2 1 1 1 0 1 2 2 3 4 3 3 3 3 4 3 3 3 2 2 2 2 3 5 5 4 5 4 4 4 5 5 5 4 1 3 2 3 4 4 4 3 3 3 4 5 5 5 5 5 5
3 4 5 5 5 6 6 5 6 7 6 5 5 4 4 5 5 4 5 5 6 5 6 6 6 4 3 3 3 4 4 4 4 3 3 2 1 1 2 2 3 4 4 4 4 4 4 4 4 4 4 4 3 3 2 2 3 4 5 4 4 4 3 2 3 4 4 4 2 2 2 2 3 3 1 2 3 3 3 2 3 4 5 5 4
3 3 4 5 5 5 5 5 5 6 6 6 7 6 5 6 6 6 6 6 5 6 4 5 5 5 4 4 3 4 4 4 3 3 2 3 3 2 3 3 3 4 6 6 5 5 5 5 5 5 5 5 4 4 4 4 3 4 4 4 4 4 3 2 3 3 4 4 4 2 1 2 2 3 4 3 2 2 2 2 3 4 5 4 3
1 2 1 3 4 5 5 4 5 6 6 6 7 7 6 6 7 6 7 7 6 5 7 5 5 5 4 4 3 3 3 2 2 2 1 2 3 2 3 4 4 4 5 7 9 7 6 6 6 6 6 6 5 4 4 5 4 3 4 4 4 4 5 4 3 4 4 4 3 3 2 2 2 3 4 3 4 4 5 3 1 3 5 5 4
1 1 1 2 3 4 5 5 5 5 6 7 6 7 7 7 8 8 6 4 5 5 4 5 6 6 6 5 5 5 4 2 2 3 3 4 3 4 6 5 5 5 6 7 9 9 6 6 5 5 5 5 5 6 5 5 3 4 3 4 4 4 4 4 4 4 4 3 3 2 2 2 3 3 4 3 2 4 6 6 5 4 5 6 6
1 1 1 2 3 3 3 3 3 3 3 4 5 7 7 7 6 6 6 5 5 5 6 6 4 4 4 5 3 3 3 3 4 4 3 4 4 6 6 6 6 6 7 8 10 10 9 7 5 5 5 3 3 4 5 5 4 4 3 2 3 4 4 4 4 3 3 2 1 2 1 1 1 1 1 3 4 3 5 6 8 7 7 6 4
1 1 1 2 3 2 1 1 1 1 2 4 5 6 5 5 5 6 6 5 5 6 6 5 5 5 3 3 3 3 2 3 3 3 3 4 5 5 5 5 5 6 7 8 9 9 7 6 6 8 8 9 10 8 9 5 5 5 4 4 4 4 4 3 3 2 2 1 2 1 1 1 2 3 3 4 5 5 5 4 6 6 7 7 5
3 2 2 2 2 2 2 2 2 2 3 4 4 5 5 5 5 6 6 5 4 3 5 4 4 4 3 3 3 3 3 3 4 3 3 2 2 3 3 5 6 6 7 7 7 6 6 6 5 9 10 11 11 11 11 11 9 7 8 6 5 4 3 3 2 1 1 0 2 2 2 2 2 3 3 2 2 2 4 5 7 7 7 7 4
2 2 2 2 2 1 1 1 2 3 3 4 5 5 5 4 5 5 5 5 5 5 4 4 5 4 5 5 5 4 4 3 5 6 8 7 4 4 4 5 5 6 6 6 6 5 5 5 4 5 7 9 9 10 8 11 9 6 8 6 3 4 5 4 3 1 0 1 1 1 2 2 1 1 1 2 1 3 4 4 5 6 7 8 9
2 2 1 1 1 2 2 1 1 2 2 3 4 5 5 6 6 6 6 7 6 5 6 6 5 3 3 4 5 4 2 3 4 4 4 5 5 4 4 4 4 5 5 5 5 4 3 2 2 3 4 6 6 7 6 6 7 9 9 7 6 6 5 3 3 2 1 1 1 1 2 2 2 1 2 2 3 4 3 4 4 5 7 7 7
2 3 3 2 1 1 1 1 2 2 2 2 2 3 4 5 6 6 6 6 5 7 7 5 4 4 4 5 3 2 2 4 3 2 2 3 4 5 4 4 4 4 4 4 4 3 3 2 2 3 2 7 6 6 7 5 5 9 10 9 7 6 7 9 8 2 0 0 1 2 1 2 3 1 2 2 2 5 5 5 5 5 5 6 7
4 4 3 3 2 1 1 1 1 1 2 2 2 3 2 2 3 3 4 4 4 3 2 3 5 5 4 4 3 2 2 4 3 4 3 3 3 5 4 2 2 2 2 2 3 3 3 3 3 2 2 4 5 6 7 7 7 7 6 5 4 5 8 8 7 7 4 1 1 2 1 1 3 2 1 1 3 5 5 6 6 6 6 7 9
6 5 5 4 2 2 2 2 1 1 2 2 3 4 4 3 4 2 1 2 4 4 5 6 4 4 4 3 2 2 1 3 3 4 5 5 6 3 1 1 1 1 1 2 2 2 3 2 2 2 2 3 4 6 9 8 7 6 6 4 4 4 4 3 2 1 0 0 1 1 1 0 1 1 1 2 2 3 4 6 7 7 8 9 9
6 5 5 4 4 2 1 2 1 0 2 3 3 4 4 5 4 4 4 4 3 4 3 4 4 4 3 3 3 3 1 3 2 2 5 7 7 4 3 2 2 1 1 2 2 2 1 1 1 1 1 2 6 7 7 8 8 7 6 5 4 4 5 5 7 7 6 3 3 3 2 4 5 3 3 3 3 3 4 5 6 6 7 8 8
5 5 5 4 3 2 2 1 1 1 1 2 2 3 5 4 4 2 4 4 4 3 3 3 3 3 3 2 2 3 3 0 3 3 6 9 7 3 4 3 3 3 3 2 3 3 3 2 1 1 2 3 7 8 9 8 7 7 6 5 4 4 4 3 6 7 7 7 7 6 5 3 1 2 2 2 3 5 5 6 6 6 7 9 8
6 5 5 4 4 2 0 1 2 2 3 4 4 3 2 2 3 2 4 5 4 3 3 3 2 1 2 2 1 3 4 3 2 4 7 10 6 5 4 4 4 3 3 3 3 4 7 10 4 3 4 5 8 9 8 6 6 6 6 6 5 3 3 2 1 2 3 4 4 2 1 0 1 3 5 4 4 5 4 7 7 7 8 8 9
7 7 7 6 5 5 5 2 3 4 3 1 1 3 4 4 3 3 3 4 5 5 4 4 3 2 2 3 3 1 3 4 4 5 7 8 5 4 4 4 4 4 4 4 4 5 6 9 11 8 7 8 9 8 3 1 4 4 5 5 4 4 3 3 3 3 2 3 4 4 5 6 5 3 3 8 6 7 6 7 7 7 8 8 9
7 6 6 7 5 5 4 5 4 2 4 4 4 4 4 3 5 5 4 4 5 4 4 4 4 3 1 1 1 0 1 2 4 6 7 6 4 2 4 5 5 5 4 5 6 6 7 7 8 10 11 11 11 10 9 8 5 4 3 3 3 3 3 2 1 1 1 1 1 2 3 2 3 3 4 4 5 6 6 6 6 7 8 8 8
6 7 6 6 7 6 5 4 5 5 3 3 4 3 5 5 5 4 5 3 4 4 4 4 3 3 2 1 1 1 2 1 3 5 8 6 5 3 3 4 5 5 5 5 6 6 6 6 7 8 12 12 12 12 11 10 7 5 3 3 3 5 2 1 2 3 2 1 2 3 4 4 4 4 4 5 5 5 5 6 6 7 7 9 10
5 6 7 7 7 7 5 5 5 5 4 4 4 5 4 5 5 5 3 4 5 5 4 4 4 3 2 2 2 2 3 5 2 4 6 7 5 1 1 4 5 6 6 5 6 6 6 6 6 6 11 12 12 12 11 10 9 6 7 8 6 3 2 1 1 1 2 3 3 4 4 4 5 5 5 5 5 5 5 6 7 7 7 8 10
7 7 7 7 7 7 7 6 4 4 5 4 6 6 5 6 6 6 6 6 6 7 7 6 5 4 3 3 2 2 2 2 5 2 6 7 6 3 2 5 3 4 6 6 6 7 6 7 7 8 11 11 11 11 11 11 9 7 7 7 6 3 3 0 1 2 3 4 4 5 5 5 5 6 6 6 5 6 6 7 7 8 9 9 10
8 8 8 7 6 7 7 7 6 4 5 5 6 8 6 6 6 7 8 8 7 6 4 3 4 4 4 3 2 2 1 1 3 2 5 8 8 8 8 7 4 2 4 6 6 7 7 7 7 10 11 12 12 11 11 9 8 9 8 7 5 2 1 1 2 3 4 4 5 5 6 6 6 6 7 7 7 8 9 9 10 11 11 10 11
9 9 9 9 8 7 6 6 7 6 5 5 6 6 6 5 6 5 5 5 5 7 5 5 4 4 3 3 3 3 2 2 2 3 3 8 10 11 10 9 8 10 7 6 7 7 10 11 11 11 12 14 14 13 11 10 10 8 7 4 4 2 2 3 3 4 5 4 5 6 6 6 6 7 8 10 11 10 11 10 10 10 10 11 11
9 10 10 9 9 9 8 8 7 7 7 5 6 6 7 6 7 5 5 6 5 5 3 2 3 3 3 3 4 4 3 3 3 4 4 6 8 10 11 10 9 9 10 9 12 13 13 13 14 12 10 8 7 7 7 6 7 7 4 1 2 3 3 4 4 4 5 5 5 6 6 7 8 9 10 9 8 9 9 8 8 8 8 8 9
10 9 9 9 10 9 9 8 7 6 5 4 5 6 6 7 8 7 8 8 7 6 7 8 6 5 6 5 5 4 5 4 5 5 5 6 6 8 9 9 13 14 10 9 10 9 9 8 8 10 9 11 10 8 8 6 5 3 2 3 3 3 3 4 4 4 5 5 6 8 8 8 8 8 8 8 8 8 8 8 8 8 8 9 9
10 10 10 9 9 9 10 7 7 7 5 3 4 5 5 6 7 7 9 9 7 6 6 6 7 7 7 6 6 5 5 5 6 7 7 7 7 7 8 9 8 7 8 8 8 9 9 10 10 7 7 6 5 4 3 3 3 2 2 2 3 3 1 3 5 3 3 4 6 7 7 7 7 7 8 8 8 8 8 8 8 9 8 9 9
11 12 11 9 9 9 8 9 8 7 6 4 3 3 4 5 7 6 5 3 5 9 9 6 6 6 7 7 7 6 5 7 8 7 8 9 8 9 8 7 7 7 8 12 10 8 7 6 4 5 4 3 2 2 3 2 1 2 3 3 3 3 3 4 5 4 4 5 6 7 7 7 8 8 8 8 8 9 8 8 8 9 9 9 10
12 12 10 10 10 9 8 9 9 8 7 6 4 2 0 2 4 3 5 2 6 12 9 4 7 7 6 7 8 9 9 7 12 12 10 9 9 10 9 10 9 10 13 12 10 7 5 4 3 3 2 2 2 2 1 1 1 1 1 2 2 3 4 4 4 5 5 5 5 6 6 7 7 8 8 9 9 9 9 9 9 9 9 9 9
12 11 10 10 10 9 8 8 8 7 7 6 5 4 3 2 2 0 3 2 4 6 6 8 9 7 7 7 3 9 9 15 17 14 12 10 10 11 12 12 14 16 14 9 6 5 5 4 3 2 2 2 2 2 1 1 1 1 2 2 2 2 3 4 4 4 4 4 4 6 6 6 7 8 8 9 9 10 9 9 9 9 9 9 10
12 12 12 11 9 10 9 9 8 7 6 4 5 5 5 4 4 4 5 2 6 5 5 4 4 5 8 2 8 4 8 14 16 15 13 13 12 13 13 14 15 14 9 6 6 5 4 4 3 2 2 2 2 1 1 1 1 2 2 3 3 3 4 4 5 6 4 4 4 6 6 6 7 8 8 8 8 9 9 9 8 8 9 9 10
13 13 12 13 12 10 10 9 8 8 8 6 5 4 5 5 6 5 3 7 5 4 3 2 7 8 6 6 9 11 12 13 16 16 16 15 15 14 14 14 13 10 8 4 5 5 4 3 3 2 2 2 1 1 1 2 1 2 2 3 4 4 4 5 4 4 4 4 5 6 7 7 7 8 8 8 9 9 9 9 8 8 8 9 9
15 13 12 12 12 12 11 10 9 9 8 8 7 6 6 6 6 5 4 3 3 5 6 5 2 7 6 7 9 11 14 16 15 16 16 16 17 17 15 10 8 4 1 3 4 4 3 3 3 4 3 2 2 1 1 1 1 2 2 3 4 5 6 6 5 4 4 4 6 6 7 7 7 8 9 8 9 9 9 8 8 9 9 9 10
14 14 16 13 12 12 12 11 10 8 8 8 8 7 5 5 4 4 6 6 3 4 3 2 4 4 3 5 8 13 15 16 14 12 13 16 17 17 15 10 7 4 4 5 5 5 4 3 3 3 3 2 1 1 1 1 2 2 3 4 5 5 5 5 4 4 4 4 7 7 7 8 8 8 9 9 9 9 9 9 8 9 9 10 10
11 11 12 12 12 12 12 12 11 11 9 8 8 6 4 5 5 5 4 5 6 5 4 3 3 6 4 3 9 14 16 17 19 19 18 18 19 17 10 8 7 6 5 6 6 5 4 4 4 3 3 3 2 1 0 1 1 2 4 4 4 5 5 5 4 4 4 5 7 7 8 8 8 8 8 9 9 9 9 9 9 9 9 10 9
11 10 10 10 11 11 11 11 11 11 9 6 7 6 4 4 4 4 6 5 4 4 5 5 5 5 5 5 8 10 13 14 15 15 14 15 15 8 4 6 6 6 6 4 5 5 4 3 3 4 3 2 1 1 0 1 2 3 3 3 4 4 4 4 5 4 5 6 8 7 8 8 9 9 9 9 9 9 9 9 9 10 10 11 11
10 9 10 11 9 9 9 9 10 8 9 8 7 6 4 4 5 3 3 3 3 3 3 5 5 5 5 5 9 9 12 15 17 14 12 10 6 4 4 3 5 5 5 4 6 5 3 3 3 3 3 2 1 1 1 1 2 2 3 3 3 3 6 6 3 4 4 5 7 7 8 8 8 9 9 9 9 9 9 9 9 9 10 10 10
8 9 11 12 9 8 7 8 8 8 9 8 9 7 4 4 3 3 3 3 4 3 3 5 5 6 6 6 5 11 15 10 9 9 9 7 4 3 4 3 4 4 4 4 6 4 3 3 3 2 2 1 0 0 1 2 2 2 3 3 3 4 4 4 4 4 4 5 8 8 8 8 9 9 9 9 9 9 9 9 9 9 9 9 9
8 8 3 6 5 6 6 5 6 6 8 8 9 7 5 4 3 3 3 3 4 3 3 4 4 5 7 10 9 10 10 10 10 9 8 6 4 3 3 4 4 5 5 4 5 4 3 3 3 2 2 1 0 0 0 2 2 2 2 3 4 4 4 4 4 4 4 6 7 8 8 9 9 9 9 8 9 9 9 9 9 9 9 10 10
7 6 4 3 2 3 4 4 4 6 6 8 6 6 5 5 4 3 3 3 3 4 3 3 5 3 4 4 5 6 3 10 9 7 5 5 4 4 4 4 5 5 5 4 3 3 3 3 3 2 1 0 0 0 1 2 2 2 3 3 3 4 4 3 3 4 5 7 7 8 8 9 9 9 9 9 10 9 9 9 9 9 9 9 9
6 6 5 3 2 2 3 4 3 3 5 4 5 4 5 5 4 3 3 4 4 6 5 5 6 5 7 10 6 10 8 6 7 6 6 6 4 4 4 4 4 4 4 4 3 3 3 3 3 2 1 0 0 1 1 2 2 2 3 3 3 3 4 4 3 5 6 7 7 8 8 9 10 10 10 10 9 8 9 8 9 9 9 9 9
7 6 6 6 5 5 3 3 4 4 5 4 3 4 5 5 5 5 5 6 7 7 6 7 7 7 6 7 9 7 5 7 8 7 4 4 4 4 4 4 4 4 4 3 3 3 3 3 2 1 1 1 1 1 2 2 2 2 2 2 3 3 4 4 5 6 6 7 8 9 10 9 9 9 9 9 9 9 8 9 9 8 8 8 8
8 7 7 7 7 6 6 5 5 5 4 5 6 5 5 5 6 6 6 6 6 6 7 7 7 7 6 6 7 6 3 3 3 4 4 4 5 5 5 5 4 4 4 3 3 3 3 3 2 2 1 1 0 1 1 1 1 1 2 2 2 3 4 5 6 7 7 8 9 9 9 9 9 9 9 9 9 9 9 9 8 8 8 8 8
9 8 8 8 8 8 8 7 7 7 7 7 5 6 6 6 6 6 6 7 8 7 8 8 7 6 7 5 4 5 3 3 3 5 5 5 5 5 5 5 5 4 4 3 3 2 2 2 2 2 1 0 0 1 1 2 2 1 2 3 3 4 5 6 7 8 8 8 9 9 9 9 9 9 9 9 9 9 9 9 9 9 8 7 7
10 9 8 8 8 9 9 9 9 9 9 8 8 7 7 7 7 7 7 8 8 9 8 7 6 6 5 5 4 5 3 2 3 4 5 5 5 5 5 5 4 4 3 3 3 2 2 2 2 2 1 1 1 1 1 2 2 2 3 3 3 4 5 7 8 9 9 8 8 9 9 9 9 9 10 10 9 8 9 9 9 9 9 8 7
9 9 9 9 10 9 9 9 9 9 9 9 9 9 8 9 8 8 8 9 9 9 7 6 6 5 5 4 3 3 3 4 4 4 4 5 5 5 5 5 4 4 3 3 3 3 3 3 2 2 2 2 2 3 3 3 2 2 3 3 3 5 6 7 9 9 9 9 9 8 9 8 9 9 9 9 9 9 9 9 9 10 9 8 8
9 9 9 9 9 9 9 9 10 11 10 10 9 9 9 10 10 10 9 8 7 7 7 6 6 6 6 5 4 4 4 4 4 5 5 5 5 5 5 4 4 4 4 4 3 3 3 3 3 2 2 3 3 3 4 3 3 3 3 3 4 6 10 12 9 9 8 9 9 9 9 8 8 9 9 10 9 10 10 9 9 8 8 8 7
8 8 9 9 9 8 8 8 8 9 8 7 8 9 7 7 7 7 7 7 6 6 6 6 6 6 6 5 5 5 5 6 5 5 5 5 5 5 4 4 3 3 3 4 3 3 3 3 3 3 3 3 4 4 4 4 4 4 5 4 7 12 14 14 11 9 11 10 8 8 8 8 8 9 9 9 9 9 9 9 9 9 8 8 8
7 8 8 8 8 8 8 8 8 8 7 7 9 9 7 6 6 6 6 6 6 6 6 6 6 6 6 6 6 6 6 6 5 5 5 5 5 4 4 4 4 4 4 4 3 3 2 3 3 3 3 3 4 4 4 4 4 5 6 7 12 13 14 15 12 11 10 8 8 7 7 7 8 7 7 8 8 9 9 9 9 8 8 8 8
6 6 6 7 7 7 8 8 8 8 8 7 7 7 7 8 7 7 6 7 6 6 6 6 6 6 6 5 6 6 6 6 6 6 5 5 4 4 4 4 4 4 4 3 3 2 2 2 3 3 3 3 4 3 4 4 5 7 9 11 12 14 15 14 11 14 15 11 8 6 6 7 6 7 7 8 8 8 8 9 9 8 8 7 7
Wind_Direction
181 188 166 168 163 171 166 162 156 158 168 172 176 162 138 168 181 146 130 133 145 149 141 137 136 131 128 112 102 104 105 109 107 118 123 119 111 96 115 141 135 128 130 131 137 134 119 110 104 88 62 115 118 120 109 105 97 82 77 79 75 53 64 101 114 118 107 61 67 70 41 11 57 38 56 55 44 56 56 50 40 38 37 39 72
185 171 165 161 170 166 165 164 162 165 164 167 185 164 128 144 156 132 126 134 158 151 142 134 138 134 123 121 117 109 103 97 92 72 78 129 135 136 146 156 188 153 174 158 143 131 135 129 123 120 71 103 121 127 123 126 115 107 96 89 89 85 37 89 99 120 123 135 103 97 75 13 81 52 57 42 44 30 47 47 47 39 34 21 35
171 173 159 155 156 159 159 166 162 159 159 167 186 180 145 138 156 145 142 145 154 157 145 142 140 144 143 145 140 127 119 110 107 111 101 72 38 50 89 256 237 220 215 203 185 167 169 153 145 141 145 135 116 98 112 114 104 102 103 96 96 96 98 102 120 116 129 117 140 114 91 69 50 60 64 63 43 32 45 41 35 35 30 21 21
193 185 181 162 151 151 156 153 165 162 163 167 181 189 166 153 158 158 153 158 154 158 153 146 141 145 150 154 152 140 128 126 127 131 147 139 98 359 345 304 277 263 251 237 217 201 196 175 164 164 161 152 150 146 142 124 117 113 113 106 105 98 93 107 107 124 141 138 125 97 102 108 106 71 73 89 49 45 37 51 45 40 24 20 18
220 204 176 172 162 169 165 164 171 171 167 167 177 182 178 159 155 163 168 176 165 143 139 140 146 154 161 165 142 128 138 142 149 162 169 135 137 175 261 270 269 286 289 284 256 229 210 211 180 179 177 167 164 168 159 157 139 134 127 122 119 116 106 93 99 116 129 121 121 98 92 97 80 64 34 14 44 49 49 24 27 23 24 16 2
248 245 189 176 174 178 180 184 192 190 178 176 181 182 174 165 161 174 186 182 164 163 153 155 155 158 159 176 167 151 149 151 162 174 180 157 160 159 219 222 243 253 263 274 266 242 232 220 194 189 193 189 180 168 165 162 152 149 142 138 129 129 119 111 107 98 97 98 111 125 89 48 84 61 36 25 15 11 9 10 355 18 7 3 2
287 269 241 234 220 202 191 191 193 194 190 189 184 179 176 174 174 177 182 172 175 170 159 162 170 173 181 172 179 171 163 181 208 184 181 187 195 209 229 223 215 205 224 239 262 267 247 219 205 198 218 213 187 174 169 164 170 158 143 140 137 135 131 125 120 115 108 115 102 66 108 88 30 34 41 5 25 24 10 353 351 5 1 352 345
212 212 205 222 236 229 203 186 194 206 198 182 179 181 178 176 180 161 162 176 189 188 180 182 169 180 180 186 175 160 166 201 221 211 208 209 210 216 225 231 234 224 213 228 234 233 227 220 197 202 222 243 220 193 174 175 168 152 141 153 148 146 132 133 133 131 133 124 92 116 86 86 113 83 31 12 12 19 22 353 340 340 342 337 327
260 224 198 228 236 238 194 149 153 173 179 178 178 181 179 170 163 163 177 187 190 194 191 185 165 172 176 189 181 177 202 225 231 216 214 212 219 231 235 244 247 252 249 239 228 228 227 214 192 183 190 203 214 194 193 169 164 158 159 180 173 153 149 148 137 130 136 140 130 137 156 88 49 18 15 19 14 358 343 338 324 329 325 323 329
279 290 254 230 221 231 216 166 171 158 160 171 169 167 174 170 171 173 181 184 183 199 197 190 184 175 183 201 201 167 199 216 202 186 225 232 217 236 245 249 248 248 250 250 244 238 233 227 213 188 186 200 211 206 191 175 184 172 171 180 171 166 157 137 115 81 13 19 49 14 353 21 35 20 5 27 4 331 330 335 330 331 325 322 316
257 274 293 345 336 321 292 170 172 176 161 154 154 167 174 174 176 178 179 177 185 200 209 195 207 200 196 198 199 202 206 203 156 188 194 204 224 226 233 239 240 245 245 248 257 253 240 224 224 176 183 182 193 206 198 181 181 159 148 185 169 167 158 137 129 158 333 4 66 2 5 348 43 354 350 351 335 333 328 324 322 330 335 335 329
289 274 328 9 321 311 310 295 218 183 184 180 169 169 172 182 187 187 182 190 196 189 196 205 209 201 201 208 213 215 216 114 176 191 198 190 205 234 234 237 232 240 246 250 257 264 265 240 199 207 209 196 179 175 175 186 167 155 141 110 83 47 30 91 148 167 198 281 325 25 327 328 331 295 1 340 342 322 315 312 318 329 325 320 313
345 342 350 2 13 326 289 256 252 229 217 214 183 183 190 194 193 191 195 190 185 198 202 199 196 199 209 214 219 211 240 111 154 160 209 224 211 223 232 221 227 228 235 248 266 276 280 264 215 216 172 151 172 162 161 140 115 125 119 105 80 81 73 55 43 33 138 280 314 295 303 329 299 16 35 351 323 308 316 315 325 315 306 299 302
51 37 32 19 359 15 353 314 281 195 205 215 209 215 212 244 269 239 207 191 193 169 181 218 209 196 194 202 195 154 167 99 127 137 152 177 179 214 244 243 258 288 308 316 307 308 305 298 284 235 176 175 183 166 163 143 142 140 138 129 101 69 62 62 64 47 27 5 281 295 64 297 317 359 48 356 320 322 320 313 318 307 300 295 298
41 36 30 26 61 58 7 350 329 143 180 189 195 200 200 195 213 222 178 212 197 174 179 184 171 152 146 150 135 129 98 81 150 150 146 149 139 181 209 278 320 320 335 332 324 314 300 298 282 271 196 188 172 163 162 153 144 132 122 108 96 71 66 59 46 45 74 248 312 0 48 262 331 346 333 320 305 310 312 304 301 294 288 281 269
33 32 24 10 12 14 19 93 109 89 172 177 195 194 186 191 175 163 165 154 129 125 106 86 87 77 63 79 100 106 83 7 322 182 149 127 135 148 155 187 190 131 95 50 30 25 2 323 288 266 187 168 124 146 148 143 143 136 122 114 102 87 71 50 35 28 25 32 46 40 34 44 16 351 355 336 313 299 285 274 272 269 282 296 298
11 3 9 3 13 15 342 5 23 87 218 134 166 181 164 152 134 132 108 93 96 89 78 71 68 83 91 95 120 120 124 192 277 216 157 148 157 158 158 160 125 103 71 60 58 45 37 38 51 75 122 113 116 128 131 147 142 140 138 133 130 134 112 79 42 33 33 52 57 54 46 55 309 318 315 318 313 320 299 292 293 311 303 298 298
359 349 343 341 332 352 335 225 189 182 204 188 175 168 121 95 121 133 129 136 128 117 116 103 91 100 138 123 69 113 120 125 201 175 168 178 199 153 155 138 115 103 95 64 66 63 47 27 22 97 104 102 117 125 148 167 147 146 144 136 135 132 131 115 119 81 63 64 53 6 307 124 290 264 263 259 228 245 279 290 307 304 290 289 293
358 346 330 327 328 328 329 297 195 193 206 190 178 156 164 163 145 154 152 145 134 142 154 137 132 113 66 64 31 44 113 127 134 156 164 185 202 150 152 141 130 120 115 96 78 81 74 52 39 54 78 91 95 98 99 165 136 137 139 149 156 159 139 158 163 167 164 189 197 190 192 196 212 233 187 187 214 226 243 270 287 284 288 292 295
340 333 328 323 316 309 296 297 297 244 217 178 179 178 171 170 171 170 168 162 149 145 138 120 119 111 102 105 132 170 119 109 93 133 150 167 238 193 156 150 140 135 129 120 110 94 88 83 65 69 86 90 88 85 75 67 101 107 125 148 154 132 140 153 86 5 183 262 270 246 269 267 260 243 260 240 221 230 252 263 271 276 281 285 286
333 332 326 322 319 313 304 279 267 267 264 216 182 174 170 176 166 170 164 153 146 144 136 128 128 137 142 168 150 100 39 66 82 120 139 146 155 203 160 147 138 140 133 128 122 115 104 91 94 87 91 87 86 83 81 73 73 94 86 90 65 79 94 150 123 243 248 254 264 274 279 285 283 280 277 272 274 272 270 264 265 267 272 282 287
327 328 327 324 321 317 310 296 281 267 248 265 203 182 180 164 162 163 157 153 159 154 145 152 154 138 134 109 71 56 53 11 89 100 126 139 150 271 203 143 144 138 134 126 122 117 113 115 109 91 92 93 90 87 83 76 66 80 72 80 86 94 121 119 199 251 285 287 301 299 298 298 301 301 293 286 285 281 280 279 273 271 270 272 277
320 318 317 317 318 317 315 310 287 265 263 235 243 227 179 174 169 168 163 172 170 165 168 171 165 142 131 109 84 62 36 56 3 104 127 137 136 131 111 139 143 156 144 141 129 122 118 112 109 107 100 96 93 93 94 98 88 92 107 107 103 140 227 111 334 296 312 311 307 305 306 304 308 309 305 303 302 298 292 290 289 285 278 274 271
317 311 306 304 307 309 313 310 303 278 254 242 228 243 225 198 178 182 183 177 174 167 171 180 156 148 142 120 102 93 75 58 43 24 136 132 129 125 122 118 146 126 124 129 123 123 130 125 118 114 101 97 92 85 77 76 94 103 100 103 130 197 340 332 318 334 312 312 310 312 312 315 309 310 317 319 313 310 304 300 294 290 287 287 282
311 305 301 300 300 300 302 301 302 298 280 245 236 227 226 209 199 193 194 196 180 170 167 179 176 150 130 140 144 145 132 106 109 59 77 124 126 126 123 120 114 110 105 105 104 93 87 98 109 109 109 105 106 103 93 87 90 95 104 142 223 10 4 349 342 333 324 320 321 317 315 318 318 309 311 311 308 301 297 300 301 301 296 292 288
303 300 299 294 292 294 296 297 293 293 294 283 259 247 227 202 212 190 190 177 179 180 150 161 163 145 152 155 153 149 137 142 135 128 129 115 116 118 122 122 116 93 89 94 98 108 112 111 111 114 117 121 118 100 96 96 96 100 103 36 35 27 3 354 342 331 324 324 321 316 313 315 315 320 313 303 298 300 304 301 301 300 301 299 297
288 287 287 289 288 283 280 285 293 292 287 283 268 252 239 226 214 190 188 184 185 191 169 172 182 183 183 177 162 152 158 162 156 151 154 144 134 129 120 109 110 109 109 117 116 113 113 111 95 86 88 81 88 102 114 146 148 138 84 48 34 17 7 356 344 323 320 320 316 315 319 317 312 305 303 304 299 299 302 300 297 296 299 299 297
275 276 278 282 283 281 279 269 264 274 270 267 268 252 233 224 227 206 188 179 181 190 176 178 187 185 186 172 166 163 168 174 172 168 160 153 148 147 136 140 145 142 131 129 122 118 116 118 124 128 129 129 127 114 96 82 81 70 40 26 19 23 359 233 245 290 306 310 314 313 306 306 303 304 303 300 298 298 299 297 296 295 295 297 294
272 268 266 263 263 266 268 269 263 263 264 250 228 254 262 234 217 239 291 292 202 178 177 190 192 184 175 171 169 177 179 188 191 170 162 157 151 147 150 149 145 140 128 124 121 127 129 127 125 127 121 115 112 102 91 85 70 70 51 14 3 355 346 350 340 329 323 310 312 317 309 306 305 303 301 299 300 301 298 295 292 291 293 291 287
275 269 261 254 254 253 256 257 255 251 251 248 223 186 110 282 316 260 239 297 312 325 309 216 197 173 181 185 180 180 193 189 137 146 145 150 150 142 134 134 129 125 133 135 133 134 136 134 132 128 126 120 114 110 95 69 49 36 45 21 338 356 346 332 328 327 321 303 303 312 308 307 305 307 306 303 302 300 300 295 292 292 289 287 287
275 271 267 258 253 254 255 256 255 257 256 247 229 205 179 138 114 271 246 199 321 306 297 312 326 272 206 173 137 49 83 125 147 149 148 147 135 125 124 123 125 132 140 131 130 132 137 134 125 118 112 118 96 85 74 65 38 19 15 355 348 342 333 322 331 324 307 304 294 311 308 307 307 310 308 305 302 299 297 292 290 289 286 287 289
266 268 269 269 261 248 248 250 249 250 250 243 239 233 211 179 175 89 23 236 175 196 243 258 264 235 277 230 144 114 130 148 148 150 149 142 138 134 129 131 135 141 155 146 128 136 140 136 137 129 133 115 99 96 90 53 42 10 356 349 346 345 331 329 332 310 303 298 302 318 317 315 312 309 305 300 296 292 292 295 294 292 289 289 287
257 259 262 266 266 261 252 246 243 237 239 228 220 221 223 211 202 178 91 55 79 126 146 187 184 200 213 203 171 149 153 159 155 150 147 142 138 136 133 132 134 134 139 148 127 134 137 137 136 133 130 114 119 105 75 56 25 1 349 340 334 336 327 323 296 287 293 300 308 317 319 317 312 307 300 296 295 297 297 294 294 293 294 293 291
254 251 252 253 257 262 257 247 239 237 232 231 224 211 213 222 216 197 167 158 106 71 78 70 164 162 152 178 161 139 147 154 154 147 141 137 133 130 126 122 114 121 191 137 132 133 138 140 140 141 131 121 124 111 84 46 8 348 336 333 330 326 321 316 309 310 308 305 321 324 320 318 314 304 298 296 295 296 297 298 299 299 299 296 294
261 250 239 239 249 253 256 252 245 237 231 227 222 212 203 197 213 207 207 188 174 175 174 117 76 52 140 168 156 141 142 138 131 130 132 133 132 129 122 124 134 143 153 145 135 141 147 149 148 138 135 131 114 97 66 20 353 342 336 333 326 325 320 316 313 308 309 315 327 326 325 315 307 298 296 298 300 300 301 303 303 301 298 295 292
257 249 246 230 228 238 242 246 244 239 232 225 222 216 183 176 193 201 179 177 209 177 159 149 124 84 94 119 146 149 149 148 145 146 148 143 141 141 141 149 146 153 150 146 145 143 149 146 139 136 132 129 125 112 63 354 338 334 337 328 320 321 320 320 316 321 322 317 325 320 318 313 307 301 300 300 298 300 303 304 300 296 290 288 289
256 250 236 232 227 223 226 233 239 237 233 223 214 206 184 166 175 184 187 182 174 167 149 139 129 110 104 121 134 127 130 130 126 127 132 141 149 148 145 146 145 141 146 144 146 148 150 147 136 131 129 125 120 92 34 342 336 322 313 309 316 307 322 318 315 322 318 323 326 322 315 307 304 303 305 305 305 306 306 304 299 295 292 290 289
281 262 240 229 217 211 214 224 227 219 224 220 215 208 182 175 165 175 183 181 164 150 149 144 142 146 154 142 146 140 124 116 111 113 127 140 156 157 141 120 131 143 146 149 152 156 146 140 138 130 121 121 109 31 354 337 325 318 323 316 307 311 289 286 283 290 289 307 325 326 318 310 307 309 309 306 305 306 304 301 300 298 297 294 294
302 276 248 218 198 201 208 212 218 218 222 215 208 196 177 167 161 167 175 168 159 158 149 149 156 147 124 124 145 137 130 135 145 144 147 156 153 136 128 131 142 145 144 146 150 149 142 140 131 124 121 106 71 5 338 328 321 318 314 311 320 319 318 331 331 323 312 325 331 328 323 316 315 314 311 307 304 303 301 299 296 296 295 294 293
331 344 287 182 173 194 200 207 203 205 211 208 201 180 169 171 171 163 162 162 164 158 153 154 158 146 139 145 153 174 150 149 145 145 147 146 139 138 139 145 149 146 143 145 151 146 141 134 133 127 125 104 34 344 329 318 317 312 313 326 325 323 327 328 329 323 322 327 328 326 322 318 316 313 309 306 306 306 300 298 298 297 294 293 291
354 7 34 137 150 190 206 203 204 199 197 197 181 169 173 168 161 152 154 157 150 133 125 117 99 91 109 104 54 346 191 141 132 129 130 127 133 140 146 145 143 140 143 150 151 142 133 130 127 128 125 122 197 310 334 314 309 322 336 327 322 328 325 322 317 319 325 325 322 320 318 315 313 312 310 309 306 302 302 301 300 300 299 297 294
16 27 38 55 95 149 155 162 178 176 170 162 162 170 154 152 146 154 142 136 129 127 125 113 107 113 103 91 77 100 89 67 87 109 126 132 137 135 129 128 131 135 141 146 142 136 130 129 135 134 126 128 27 354 316 314 329 339 338 333 332 330 328 327 326 329 323 318 316 313 313 309 305 303 302 303 306 308 307 306 306 305 305 304 303
31 39 42 49 49 52 66 101 136 153 157 151 144 121 126 134 134 132 126 130 129 127 118 118 118 120 111 96 96 99 113 121 129 133 136 130 126 121 123 121 120 123 127 125 130 133 134 131 130 129 108 79 17 336 317 338 348 340 339 335 335 339 328 324 324 327 325 316 310 307 303 303 308 314 314 313 311 311 310 309 309 309 308 306 307
41 48 58 62 62 59 57 81 101 115 120 105 98 101 113 116 120 128 124 120 115 113 112 115 122 116 112 94 92 92 96 94 106 117 120 122 123 123 118 113 113 119 122 124 128 126 127 130 129 103 98 89 36 305 314 4 3 354 341 338 347 343 328 328 324 321 319 314 308 307 309 310 311 313 317 317 318 318 317 315 310 308 308 310 312
43 43 48 57 56 64 65 69 74 86 101 106 104 102 103 107 110 106 109 110 104 104 107 113 110 107 101 94 96 97 94 86 99 107 117 120 116 114 114 119 123 123 124 125 113 111 114 111 111 109 105 84 5 336 25 42 29 11 10 356 347 340 333 325 317 314 308 303 303 304 307 309 314 316 318 320 319 316 314 315 314 312 312 316 318
44 49 43 49 58 62 65 68 72 83 90 96 104 103 98 98 101 102 104 107 108 110 108 103 97 87 85 90 90 96 111 115 106 105 115 117 116 117 121 123 117 121 121 116 106 85 79 77 83 81 70 39 22 10 44 47 33 23 11 8 344 329 321 318 317 311 305 300 299 300 300 303 307 311 310 316 321 322 319 318 318 321 321 319 318
40 46 47 56 58 63 64 66 70 72 75 75 83 95 104 109 99 92 94 97 101 109 101 93 85 86 87 93 101 104 102 101 112 118 110 103 106 114 117 117 118 116 107 97 94 99 91 73 65 58 45 32 50 41 26 21 8 4 3 355 350 334 333 327 316 308 303 301 298 295 296 298 303 314 320 325 326 329 328 327 329 326 326 325 325
41 45 50 51 55 61 64 68 69 66 67 63 63 73 84 97 102 99 100 90 86 89 90 86 86 86 89 91 89 93 96 100 103 108 110 111 112 110 105 110 117 116 103 94 83 72 69 68 66 56 55 49 38 38 32 14 360 351 350 348 350 342 325 322 315 309 307 308 299 292 292 297 306 319 325 327 329 331 331 333 332 331 330 331 333
49 46 49 50 53 50 55 58 63 69 70 69 72 73 64 62 68 74 78 78 78 80 89 94 92 93 95 100 106 105 104 108 109 107 107 106 107 107 101 93 90 95 98 88 87 81 79 69 58 52 48 45 41 35 26 11 352 355 346 341 336 331 327 327 320 311 311 305 299 297 295 298 313 322 327 331 334 334 334 334 334 333 331 334 338
55 55 54 52 53 49 48 58 63 64 64 73 83 87 74 70 71 71 75 79 81 81 81 82 89 95 106 110 111 110 106 105 103 102 100 103 101 102 102 95 83 77 82 92 92 85 80 71 61 56 51 47 40 31 18 10 360 351 345 336 331 331 331 330 322 319 322 315 304 296 299 310 325 332 338 341 339 338 341 342 340 337 338 340 345
48 49 58 59 61 62 65 65 61 65 69 68 70 75 82 87 89 85 82 83 85 85 89 95 99 102 104 103 102 105 104 102 99 99 97 96 96 94 95 100 101 91 93 100 104 91 75 63 55 51 45 43 33 28 15 6 0 348 337 334 335 336 335 336 333 331 328 322 302 288 297 310 318 336 349 352 347 346 343 341 346 346 345 346 349